Orbital Elements at Epoch 2459200.5 (2020-Dec-17.0) TDB
Reference: JPL 13 (heliocentric ecliptic J2000)
Element | Value | Uncertainty (1-sigma) | Units |
e | .1091080419637535 | 5.6363e-08 | |
a | 1.860276558775918 | 6.9566e-09 | au |
q | 1.657305425936809 | 1.0302e-07 | au |
i | 20.59427811649998 | 5.7158e-06 | deg |
node | 218.9637945290228 | 1.5171e-05 | deg |
peri | 110.02441728 | 3.4712e-05 | deg |
M | 236.5325997940082 | 3.4426e-05 | deg |
tp | 2459518.344353052935 (2021-Oct-30.84435305) | 8.967e-05 | TDB |
period | 926.7544866754532 2.54 | 5.1985e-06 1.423e-08 | d yr |
n | .3884523950797672 | 2.179e-09 | deg/d |
Q | 2.063247691615028 | 7.7157e-09 | au |
|
| | Orbit Determination Parameters
Additional Information
|